Location: Coupvray
(48.8929°N, 2.7967°E)
Time: 08:15:12
(UTC+00:00)

Abrixas rocket - Pass Details

Date: 14 July 2020
Orbit: 338 x 346 km, 48.4° (Epoch: 13 August)

Event Time Altitude Azimuth Distance (km) Brightness Sun altitude
Exits shadow 03:05:54 -1° 280° (W) 2,186 5.6 -7.6°
Rises 03:06:03 0° 279° (W) 2,122 5.5 -7.6°
Reaches altitude 10° 03:08:14 10° 266° (W) 1,280 4.3 -7.4°
Maximum altitude 03:10:41 26° 207° (SSW) 715 2.9 -7.1°
Drops below altitude 10° 03:13:08 10° 148° (SSE) 1,275 4.6 -6.8°
Sets 03:15:18 0° 134° (SE) 2,111 5.8 -6.6°
